• In Italy
  • List of Countries
  • For 7 days
  • Water Temperature
  • Satellite Maps
  • Weather Map
  • Weather Widgets
  • user-avatar
    Login

    Hourly Weather Chingansola

    Today, 19 June, Tuesday

    Time Temperature Precipitation Wind Pressure Humidity
    00:00 +16°C° 0 mm 2 mps 745 mmHg 79%
    01:00 +16°C° 0 mm 2 mps 745 mmHg 79%
    02:00 +16°C° 0 mm 2 mps 745 mmHg 79%
    03:00 +16°C° 0 mm 1 mps 744 mmHg 77%
    04:00 +18°C° 0 mm 1 mps 745 mmHg 75%
    05:00 +18°C° 0 mm 2 mps 745 mmHg 73%
    06:00 +19°C° 0 mm 2 mps 745 mmHg 72%
    07:00 +20°C° 0 mm 2 mps 745 mmHg 68%
    08:00 +23°C° 0 mm 2 mps 745 mmHg 64%
    09:00 +24°C° 0 mm 3 mps 744 mmHg 60%
    10:00 +25°C° 0 mm 3 mps 744 mmHg 55%
    11:00 +26°C° 0 mm 3 mps 744 mmHg 50%
    12:00 +27°C° 0 mm 3 mps 744 mmHg 45%
    13:00 +27°C° 0 mm 2 mps 744 mmHg 49%
    14:00 +26°C° 0 mm 2 mps 744 mmHg 53%
    15:00 +26°C° 0 mm 2 mps 744 mmHg 58%
    16:00 +25°C° 0 mm 2 mps 744 mmHg 61%
    17:00 +25°C° 0 mm 2 mps 743 mmHg 64%
    18:00 +24°C° 0 mm 1 mps 743 mmHg 67%
    19:00 +23°C° 0 mm 2 mps 743 mmHg 70%
    20:00 +21°C° 0 mm 2 mps 743 mmHg 73%
    21:00 +19°C° 0 mm 2 mps 743 mmHg 75%
    22:00 +18°C° 0.4 mm 2 mps 742 mmHg 80%
    23:00 +18°C° 0.4 mm 2 mps 742 mmHg 85%

    Tomorrow, 20 June, Wednesday

    Time Temperature Precipitation Wind Pressure Humidity
    00:00 +17°C° 0.4 mm 2 mps 742 mmHg 90%
    01:00 +16°C° 0.4 mm 3 mps 741 mmHg 92%
    02:00 +16°C° 0.4 mm 3 mps 741 mmHg 93%
    03:00 +16°C° 0.4 mm 3 mps 740 mmHg 95%
    04:00 +17°C° 0.2 mm 3 mps 740 mmHg 94%
    05:00 +17°C° 0.2 mm 4 mps 739 mmHg 93%
    06:00 +18°C° 0.2 mm 4 mps 739 mmHg 91%
    07:00 +19°C° 0.5 mm 5 mps 738 mmHg 90%
    08:00 +20°C° 0.5 mm 5 mps 738 mmHg 88%
    09:00 +21°C° 0.5 mm 6 mps 737 mmHg 86%
    10:00 +20°C° 1.1 mm 6 mps 737 mmHg 86%
    11:00 +19°C° 1.1 mm 6 mps 737 mmHg 86%
    12:00 +17°C° 1.1 mm 6 mps 737 mmHg 87%
    13:00 +18°C° 0.1 mm 7 mps 737 mmHg 74%
    14:00 +20°C° 0.1 mm 7 mps 737 mmHg 61%
    15:00 +21°C° 0.1 mm 7 mps 738 mmHg 48%
    16:00 +20°C° 0 mm 7 mps 738 mmHg 51%
    17:00 +20°C° 0 mm 6 mps 738 mmHg 54%
    18:00 +19°C° 0 mm 5 mps 739 mmHg 57%
    19:00 +17°C° 0 mm 4 mps 739 mmHg 60%
    20:00 +15°C° 0 mm 4 mps 739 mmHg 62%
    21:00 +14°C° 0 mm 4 mps 739 mmHg 64%
    22:00 +13°C° 0.3 mm 4 mps 739 mmHg 71%
    23:00 +12°C° 0.3 mm 4 mps 739 mmHg 78%

    Day after tomorrow, 21 June, Thursday

    Time Temperature Precipitation Wind Pressure Humidity
    00:00 +11°C° 0.3 mm 4 mps 739 mmHg 85%
    01:00 +11°C° 0 mm 4 mps 739 mmHg 85%
    02:00 +10°C° 0 mm 5 mps 739 mmHg 84%
    03:00 +9°C° 0 mm 5 mps 739 mmHg 84%
    04:00 +10°C° 0 mm 5 mps 739 mmHg 79%
    05:00 +11°C° 0 mm 6 mps 739 mmHg 74%
    06:00 +12°C° 0 mm 7 mps 739 mmHg 69%
    07:00 +15°C° 0 mm 7 mps 739 mmHg 63%
    08:00 +16°C° 0 mm 8 mps 739 mmHg 56%
    09:00 +17°C° 0 mm 9 mps 739 mmHg 50%
    10:00 +18°C° 0 mm 9 mps 739 mmHg 47%
    11:00 +19°C° 0 mm 9 mps 740 mmHg 45%
    12:00 +21°C° 0 mm 9 mps 740 mmHg 43%
    13:00 +21°C° 0 mm 8 mps 740 mmHg 43%
    14:00 +21°C° 0 mm 8 mps 740 mmHg 43%
    15:00 +22°C° 0 mm 7 mps 740 mmHg 43%
    16:00 +21°C° 0 mm 6 mps 741 mmHg 46%
    17:00 +21°C° 0 mm 6 mps 741 mmHg 50%
    18:00 +20°C° 0 mm 5 mps 741 mmHg 53%
    19:00 +19°C° 0 mm 4 mps 741 mmHg 56%
    20:00 +17°C° 0 mm 4 mps 742 mmHg 59%
    21:00 +15°C° 0 mm 4 mps 742 mmHg 62%
    22:00 +14°C° 0 mm 4 mps 743 mmHg 64%
    23:00 +13°C° 0 mm 4 mps 743 mmHg 66%

    22 June, Friday

    Time Temperature Precipitation Wind Pressure Humidity
    00:00 +13°C° 0 mm 4 mps 743 mmHg 68%
    01:00 +12°C° 0 mm 3 mps 744 mmHg 72%
    02:00 +11°C° 0 mm 3 mps 744 mmHg 77%
    03:00 +11°C° 0 mm 3 mps 744 mmHg 81%
    04:00 +12°C° 0 mm 3 mps 745 mmHg 79%
    05:00 +13°C° 0 mm 3 mps 745 mmHg 77%
    06:00 +14°C° 0 mm 3 mps 745 mmHg 75%
    07:00 +17°C° 0 mm 3 mps 745 mmHg 68%
    08:00 +19°C° 0 mm 3 mps 746 mmHg 62%
    09:00 +21°C° 0 mm 3 mps 746 mmHg 55%
    10:00 +22°C° 0 mm 3 mps 746 mmHg 53%
    11:00 +24°C° 0 mm 3 mps 746 mmHg 51%
    12:00 +25°C° 0 mm 3 mps 746 mmHg 49%
    13:00 +26°C° 0 mm 3 mps 746 mmHg 49%
    14:00 +26°C° 0 mm 3 mps 746 mmHg 50%
    15:00 +27°C° 0 mm 3 mps 745 mmHg 50%
    16:00 +27°C° 0 mm 3 mps 745 mmHg 55%
    17:00 +27°C° 0 mm 2 mps 745 mmHg 60%
    18:00 +26°C° 0 mm 2 mps 745 mmHg 65%
    19:00 +24°C° 0 mm 2 mps 745 mmHg 73%
    20:00 +21°C° 0 mm 2 mps 745 mmHg 80%
    21:00 +19°C° 0 mm 2 mps 745 mmHg 88%
    22:00 +19°C° 0 mm 2 mps 745 mmHg 90%
    23:00 +18°C° 0 mm 2 mps 745 mmHg 92%

    23 June, Saturday

    Time Temperature Precipitation Wind Pressure Humidity
    00:00 +18°C° 0 mm 2 mps 746 mmHg 93%
    01:00 +17°C° 0 mm 2 mps 746 mmHg 94%
    02:00 +17°C° 0 mm 2 mps 746 mmHg 94%
    03:00 +17°C° 0 mm 2 mps 746 mmHg 95%
    04:00 +18°C° 0 mm 2 mps 746 mmHg 91%
    05:00 +19°C° 0 mm 2 mps 746 mmHg 87%
    06:00 +20°C° 0 mm 2 mps 746 mmHg 84%
    07:00 +22°C° 0 mm 3 mps 746 mmHg 77%
    08:00 +25°C° 0 mm 3 mps 746 mmHg 71%
    09:00 +27°C° 0 mm 3 mps 746 mmHg 65%
    10:00 +27°C° 0 mm 3 mps 746 mmHg 60%
    11:00 +28°C° 0 mm 4 mps 746 mmHg 56%
    12:00 +29°C° 0 mm 4 mps 746 mmHg 52%
    13:00 +29°C° 0 mm 4 mps 746 mmHg 51%
    14:00 +30°C° 0 mm 4 mps 746 mmHg 51%
    15:00 +30°C° 0 mm 4 mps 746 mmHg 50%
    16:00 +29°C° 0 mm 3 mps 746 mmHg 54%
    17:00 +29°C° 0 mm 3 mps 746 mmHg 58%
    18:00 +28°C° 0 mm 2 mps 745 mmHg 62%
    19:00 +26°C° 0 mm 2 mps 746 mmHg 69%
    20:00 +24°C° 0 mm 2 mps 746 mmHg 75%
    21:00 +21°C° 0 mm 2 mps 746 mmHg 82%
    22:00 +20°C° 0 mm 2 mps 746 mmHg 84%
    23:00 +20°C° 0 mm 2 mps 746 mmHg 86%

    24 June, Sunday

    Time Temperature Precipitation Wind Pressure Humidity
    00:00 +19°C° 0 mm 2 mps 746 mmHg 89%
    01:00 +19°C° 0 mm 2 mps 746 mmHg 89%
    02:00 +18°C° 0 mm 2 mps 746 mmHg 90%
    03:00 +18°C° 0 mm 2 mps 746 mmHg 91%
    04:00 +19°C° 0 mm 2 mps 746 mmHg 86%
    05:00 +21°C° 0 mm 3 mps 746 mmHg 82%
    06:00 +22°C° 0 mm 3 mps 746 mmHg 77%
    07:00 +25°C° 0 mm 3 mps 746 mmHg 70%
    08:00 +26°C° 0 mm 4 mps 746 mmHg 64%
    09:00 +28°C° 0 mm 5 mps 745 mmHg 57%
    10:00 +29°C° 0 mm 5 mps 745 mmHg 53%
    11:00 +29°C° 0 mm 5 mps 745 mmHg 49%
    12:00 +30°C° 0 mm 6 mps 745 mmHg 45%
    13:00 +30°C° 0 mm 6 mps 745 mmHg 47%
    14:00 +30°C° 0 mm 5 mps 745 mmHg 48%
    15:00 +29°C° 0 mm 5 mps 745 mmHg 49%
    16:00 +28°C° 0 mm 4 mps 745 mmHg 54%
    17:00 +27°C° 0 mm 3 mps 745 mmHg 58%
    18:00 +26°C° 0 mm 2 mps 745 mmHg 63%
    19:00 +24°C° 0.6 mm 2 mps 745 mmHg 71%
    20:00 +21°C° 0.6 mm 2 mps 745 mmHg 80%
    21:00 +19°C° 0.6 mm 3 mps 746 mmHg 88%
    22:00 +18°C° 0.4 mm 3 mps 746 mmHg 90%
    23:00 +18°C° 0.4 mm 3 mps 746 mmHg 92%
    Show more